Wind_Speed
61 66 64 61 59 59 61 65 63 60 61 59 59 59 63 62 60 63 66 65 64 65 65 60 60 61 60 60 60 61 57 55 53 51 48 46 46 46 47 48 47 52 53 54 54
64 66 71 70 68 65 67 68 68 67 68 62 62 61 63 66 67 65 65 67 70 70 68 67 68 70 64 60 63 60 58 55 55 54 50 47 45 46 47 47 45 44 46 48 44
72 71 70 75 77 75 74 72 74 72 69 69 66 67 64 67 73 72 74 74 71 68 66 64 62 66 66 63 58 58 54 54 54 52 51 49 48 42 43 44 39 37 32 35 37
79 77 72 75 74 78 78 79 77 77 77 74 73 72 68 69 72 72 73 74 73 70 68 66 62 61 62 58 57 58 57 53 52 50 53 49 48 47 41 38 37 31 33 36 39
75 76 78 75 80 81 77 79 81 80 79 78 76 77 76 78 83 75 74 73 73 67 67 68 64 63 58 56 59 59 56 51 51 50 49 49 48 42 35 30 34 41 41 40 39
69 74 75 78 79 84 83 83 80 80 78 75 77 79 78 79 81 78 79 72 70 67 65 66 64 59 62 60 57 57 53 50 49 49 46 41 39 40 37 36 42 45 40 41 42
87 83 79 80 75 78 81 80 79 78 76 77 77 76 78 82 81 81 79 77 74 69 66 62 61 58 57 59 58 52 50 51 48 46 48 47 46 47 44 45 44 43 47 45 44
88 87 85 86 87 83 81 81 80 82 80 79 78 76 78 83 76 78 76 75 75 74 65 64 60 59 56 54 53 49 50 50 48 42 45 46 47 49 45 47 47 46 45 46 49
93 91 88 84 87 88 85 84 82 81 82 80 75 77 74 77 78 73 71 71 65 58 60 55 54 53 52 53 53 53 51 49 51 49 47 45 41 47 41 42 46 46 46 49 49
96 94 92 93 94 83 88 87 83 79 81 81 74 77 71 73 71 70 70 67 57 55 56 51 50 52 54 54 53 51 48 48 51 50 46 42 41 41 40 42 40 43 46 49 52
102 98 97 96 94 98 88 89 86 85 80 78 75 75 70 75 69 67 63 62 56 55 52 51 48 55 54 51 50 51 50 51 55 55 50 43 39 43 44 41 44 47 50 53 57
99 101 97 101 100 102 97 91 92 87 83 78 77 76 73 80 74 74 68 66 59 56 54 54 51 56 58 56 53 54 54 54 56 58 50 48 45 48 47 47 48 52 54 58 62
103 101 100 103 100 100 102 97 95 89 89 83 82 77 78 76 73 76 77 74 73 59 58 57 57 61 63 62 59 57 55 58 59 64 59 52 48 52 56 55 57 59 62 65 67
104 106 108 108 110 108 110 104 97 98 90 88 90 81 80 78 75 76 82 84 71 68 61 57 61 63 65 63 63 60 62 61 61 64 66 64 56 54 61 65 67 67 68 71 73
116 119 115 117 120 115 108 108 106 99 98 94 90 87 87 90 82 81 85 82 77 74 69 62 66 74 70 66 70 65 67 70 67 69 69 65 69 58 65 70 76 77 77 79 80
120 122 119 118 114 114 109 103 102 104 99 96 93 90 92 93 88 90 86 81 79 76 75 76 79 73 74 75 73 71 73 76 77 77 73 71 77 62 73 72 77 80 80 81 79
124 124 120 118 113 112 112 112 107 103 98 97 95 94 94 90 90 89 88 85 84 79 77 84 83 81 80 79 80 83 82 82 86 85 79 80 86 78 77 81 81 82 85 83 83
125 125 121 123 118 114 115 114 107 101 105 101 96 93 94 95 91 89 92 86 86 84 88 90 86 90 90 87 88 89 90 91 96 92 88 93 92 86 90 86 86 88 88 91 93
128 126 121 119 116 113 114 112 102 100 104 105 100 94 93 95 93 88 88 89 91 92 92 92 88 90 95 98 93 92 95 94 101 101 98 94 93 93 93 93 93 94 96 98 99
127 116 119 124 120 120 118 114 106 103 105 106 109 107 100 97 101 98 98 96 97 96 98 98 94 95 99 101 99 100 100 105 107 108 110 107 104 101 99 102 100 99 101 102 100
131 131 122 125 123 123 125 120 114 115 113 111 111 113 112 109 110 107 107 107 107 104 107 107 104 99 102 107 109 109 109 111 111 114 113 110 109 106 105 108 109 108 108 110 112
136 138 130 131 130 131 123 124 122 121 119 117 117 120 117 118 117 116 116 116 115 116 113 111 111 112 112 113 115 117 119 113 117 114 115 114 116 117 117 117 115 113 109 103 97
147 141 142 140 141 141 129 129 133 127 128 124 125 123 124 122 122 122 119 116 116 120 119 120 122 122 116 116 117 120 117 116 116 113 115 113 112 117 116 113 117 114 110 100 95
149 150 146 146 147 143 139 138 135 134 132 135 129 126 127 126 126 123 122 124 125 122 121 116 119 122 122 120 120 121 122 126 126 125 125 122 122 120 121 121 118 109 105 106 117
153 155 154 158 153 152 152 151 151 144 143 145 140 138 138 137 134 129 135 139 141 140 137 135 126 124 127 123 119 122 120 123 126 127 125 118 120 122 123 127 124 123 125 127 131
147 146 148 155 159 153 151 156 153 145 142 145 144 145 149 149 145 148 147 143 142 145 148 144 143 136 133 129 133 131 123 130 132 129 130 134 125 127 125 126 134 122 124 128 129
130 134 142 139 150 146 144 143 143 142 138 136 136 139 136 136 138 139 143 139 138 137 132 137 134 140 138 139 140 142 133 136 132 137 135 134 131 127 125 129 134 125 125 128 130
Wind_Direction
256 255 256 260 264 263 259 261 260 261 268 267 268 268 267 270 274 275 276 277 278 279 281 283 284 289 289 291 290 294 294 293 299 296 294 297 295 298 294 291 283 279 283 284 282
264 258 256 258 257 262 265 265 268 268 269 271 272 275 275 274 274 276 276 276 277 276 280 282 281 285 285 289 290 288 289 294 294 293 296 295 294 295 293 286 285 285 282 280 278
268 266 261 262 260 262 263 265 267 269 271 272 273 277 276 277 280 281 281 281 276 277 281 282 284 285 284 288 287 284 288 293 292 291 293 293 296 292 287 285 284 279 277 273 272
271 270 263 262 260 264 262 264 266 266 268 271 273 276 278 280 280 281 283 283 280 281 280 284 281 285 285 284 281 285 286 288 288 288 291 291 293 292 286 282 281 272 278 279 278
271 270 268 262 261 259 262 263 264 265 267 269 273 273 278 280 280 279 282 283 283 281 280 284 281 282 281 279 281 282 282 282 284 285 287 288 289 287 281 275 279 288 290 283 273
267 268 270 269 267 264 264 262 261 264 268 271 273 275 277 278 280 280 281 283 284 282 280 281 280 277 278 278 277 279 276 276 276 283 286 286 287 275 272 276 282 286 292 284 277
265 270 274 267 265 269 265 264 266 267 270 273 274 278 279 278 280 279 279 282 284 284 282 277 277 275 273 274 272 270 272 272 272 279 281 282 280 274 281 279 282 286 289 290 276
263 269 270 268 266 267 269 269 268 270 271 273 276 277 280 278 279 281 281 285 284 285 280 277 270 270 267 267 263 266 269 271 274 276 276 280 280 282 281 278 280 279 279 280 275
265 265 267 269 268 268 268 268 270 271 272 274 275 276 280 279 280 277 285 287 283 273 275 265 265 264 262 261 263 267 270 274 274 275 276 279 283 286 284 285 283 285 282 282 283
265 267 268 268 268 272 272 268 270 273 271 273 274 275 275 280 280 284 287 283 269 264 265 265 265 262 258 260 265 269 269 270 272 273 273 280 276 288 291 286 287 290 290 289 289
265 265 265 266 267 270 273 269 268 272 268 270 272 273 274 275 278 282 280 271 262 261 259 258 261 262 263 264 266 268 267 271 274 273 273 274 277 282 284 285 288 288 291 292 294
265 263 265 266 266 271 273 272 270 269 267 265 269 271 272 272 274 277 278 272 263 261 262 260 259 260 264 266 268 269 270 272 276 276 273 278 278 280 282 282 287 290 291 292 293
265 261 264 265 267 269 273 274 265 267 268 266 268 270 270 273 273 277 277 277 263 262 264 260 260 264 267 268 270 272 275 273 274 276 276 275 278 285 287 286 286 289 291 295 296
264 264 262 263 266 267 269 270 269 268 268 268 268 268 270 271 272 273 278 276 273 266 269 268 265 268 268 271 273 272 276 277 278 278 279 280 277 286 290 291 293 292 294 297 297
261 268 267 267 267 269 268 268 269 265 268 268 269 268 270 272 271 274 273 273 274 271 271 275 278 278 273 273 275 276 276 277 277 278 277 281 282 287 288 291 292 295 295 294 295
264 263 266 267 268 270 269 269 270 270 269 268 269 271 270 273 271 270 271 271 275 272 272 274 281 278 275 279 280 282 281 278 278 278 280 284 282 283 286 290 292 292 292 293 291
261 262 262 263 264 265 266 267 266 268 271 271 272 270 271 270 272 272 272 272 273 272 272 275 281 279 279 281 283 283 280 281 284 285 286 282 282 285 286 288 287 288 291 291 291
262 261 262 261 262 263 264 264 262 264 268 271 268 267 270 271 267 268 265 271 271 273 274 278 280 281 279 282 281 284 286 289 289 285 283 283 288 289 290 290 289 290 292 293 294
260 258 260 262 263 262 263 262 259 264 266 266 267 267 267 269 269 270 268 265 267 269 273 274 277 277 280 280 281 283 283 282 284 285 286 286 288 289 292 291 288 289 294 295 297
257 252 259 261 261 263 261 261 261 259 263 266 266 265 265 266 268 270 270 270 272 271 276 274 270 275 278 278 276 279 278 280 283 285 285 286 288 292 290 289 291 292 295 296 296
255 255 256 257 259 260 263 264 264 264 262 264 266 268 269 268 268 269 269 271 272 272 275 276 276 279 278 276 277 277 280 283 282 285 287 288 291 291 290 291 292 293 295 294 294
251 255 256 256 257 256 257 260 263 263 262 263 263 266 266 268 269 271 271 270 271 271 271 271 269 275 277 276 275 277 279 281 283 287 286 286 288 289 290 291 293 293 295 294 293
250 252 253 253 256 255 255 256 258 259 262 263 264 265 267 266 269 270 272 268 267 268 271 274 275 273 271 274 274 275 277 280 281 283 285 285 287 289 289 288 289 289 290 289 287
253 255 255 256 256 257 256 256 257 258 258 259 261 260 263 263 262 263 263 262 264 266 267 269 271 271 273 276 278 278 278 280 281 280 282 283 284 286 288 289 290 289 285 282 281
253 255 256 256 258 262 258 258 258 262 261 257 258 259 259 259 260 262 265 267 267 268 269 269 267 266 267 269 269 269 271 274 277 278 280 281 280 283 281 283 283 281 281 282 284
258 256 259 259 261 264 264 261 263 263 265 263 262 261 261 260 260 263 265 267 267 269 269 271 272 268 264 267 269 270 271 273 275 275 277 277 278 280 281 278 283 284 283 284 288
256 260 256 259 259 261 263 264 264 264 261 260 261 262 265 266 262 265 264 266 267 269 269 270 271 271 269 269 269 271 273 274 276 277 276 278 280 278 278 277 280 283 282 281 285
Height
10805 10806 10808 10809 10810 10812 10812 10813 10813 10813 10813 10813 10814 10814 10814 10812 10812 10813 10811 10812 10810 10809 10809 10810 10807 10805 10806 10804 10803 10800 10796 10797 10797 10796 10797 10797 10796 10791 10788 10785 10780 10777 10774 10772 10767
10792 10793 10795 10797 10796 10798 10800 10801 10801 10801 10801 10801 10802 10804 10805 10801 10799 10803 10802 10801 10799 10797 10798 10798 10796 10795 10796 10794 10792 10789 10786 10788 10785 10783 10785 10786 10787 10783 10779 10774 10770 10767 10765 10763 10761
10778 10781 10783 10783 10784 10784 10786 10788 10788 10789 10789 10789 10792 10792 10793 10791 10786 10790 10789 10789 10788 10787 10786 10785 10783 10783 10783 10785 10781 10777 10776 10777 10773 10773 10773 10773 10774 10775 10770 10765 10761 10759 10757 10754 10752
10764 10765 10769 10771 10770 10771 10772 10774 10776 10777 10778 10779 10780 10779 10780 10779 10774 10777 10775 10776 10776 10776 10775 10773 10772 10771 10773 10772 10769 10767 10765 10765 10763 10763 10763 10762 10762 10761 10759 10757 10753 10751 10748 10748 10747
10749 10750 10751 10753 10754 10756 10759 10761 10764 10764 10766 10767 10768 10767 10767 10764 10761 10764 10762 10764 10762 10764 10764 10761 10760 10760 10760 10760 10759 10756 10754 10754 10754 10753 10753 10753 10753 10751 10748 10747 10743 10740 10739 10738 10738
10733 10734 10736 10737 10740 10742 10744 10745 10747 10749 10750 10752 10753 10754 10753 10748 10751 10747 10749 10751 10749 10752 10750 10750 10749 10748 10746 10747 10747 10745 10744 10745 10742 10743 10743 10744 10745 10739 10741 10740 10734 10730 10729 10728 10726
10717 10719 10720 10723 10724 10727 10728 10729 10730 10732 10734 10737 10738 10738 10738 10729 10738 10733 10737 10738 10738 10739 10738 10736 10736 10735 10734 10735 10733 10732 10733 10733 10730 10734 10732 10733 10732 10731 10735 10731 10726 10723 10720 10718 10715
10698 10702 10705 10706 10709 10709 10710 10714 10717 10717 10720 10723 10724 10725 10723 10717 10722 10721 10721 10722 10724 10722 10724 10724 10722 10723 10721 10721 10720 10722 10722 10721 10723 10723 10719 10722 10716 10720 10727 10722 10716 10713 10711 10707 10703
10681 10685 10686 10688 10690 10692 10694 10696 10699 10701 10703 10708 10710 10710 10708 10705 10706 10708 10706 10707 10711 10710 10710 10712 10711 10712 10709 10706 10711 10709 10714 10711 10709 10711 10712 10712 10708 10705 10712 10710 10707 10704 10699 10694 10691
10661 10665 10667 10671 10674 10674 10676 10679 10682 10685 10689 10693 10694 10695 10696 10692 10692 10693 10694 10694 10697 10698 10699 10700 10702 10698 10694 10695 10701 10702 10701 10698 10694 10698 10700 10703 10703 10696 10698 10700 10696 10693 10689 10683 10679
10641 10646 10649 10653 10653 10655 10660 10662 10664 10668 10674 10677 10680 10679 10681 10679 10681 10682 10680 10680 10684 10686 10687 10689 10690 10684 10682 10686 10689 10687 10688 10686 10679 10680 10687 10689 10692 10689 10688 10686 10687 10682 10679 10674 10668
10619 10623 10628 10630 10631 10635 10641 10639 10645 10650 10658 10661 10664 10668 10660 10663 10672 10667 10667 10670 10670 10669 10674 10678 10679 10670 10671 10671 10673 10673 10673 10672 10667 10661 10672 10673 10677 10677 10676 10676 10673 10669 10666 10663 10658
10595 10600 10606 10608 10613 10618 10617 10620 10625 10630 10635 10646 10646 10651 10641 10651 10659 10651 10648 10653 10659 10660 10657 10662 10665 10659 10657 10656 10658 10657 10658 10654 10654 10649 10654 10657 10664 10661 10660 10661 10660 10657 10653 10649 10644
10573 10576 10582 10587 10593 10596 10595 10599 10604 10609 10616 10627 10621 10633 10631 10632 10641 10637 10630 10635 10642 10646 10641 10651 10648 10645 10643 10643 10640 10644 10638 10637 10637 10636 10638 10636 10648 10651 10645 10642 10640 10639 10638 10635 10628
10549 10551 10554 10561 10564 10570 10573 10575 10583 10588 10592 10598 10606 10609 10609 10612 10622 10621 10615 10618 10624 10624 10623 10632 10635 10631 10629 10628 10620 10629 10623 10620 10620 10619 10620 10625 10619 10643 10633 10628 10620 10618 10617 10615 10611
10525 10529 10532 10536 10537 10539 10542 10549 10559 10559 10570 10581 10588 10589 10590 10592 10599 10602 10601 10600 10605 10606 10610 10611 10612 10615 10611 10608 10605 10605 10608 10603 10598 10599 10604 10608 10598 10630 10614 10615 10610 10600 10596 10590 10585
10498 10504 10509 10512 10514 10516 10517 10530 10534 10546 10552 10557 10561 10567 10568 10573 10574 10576 10578 10581 10583 10584 10592 10591 10596 10595 10593 10591 10587 10584 10581 10580 10581 10580 10590 10586 10576 10602 10599 10595 10591 10584 10578 10574 10567
10466 10475 10480 10487 10489 10490 10492 10500 10520 10536 10529 10533 10536 10538 10543 10547 10551 10556 10561 10562 10560 10562 10566 10568 10578 10573 10576 10571 10569 10562 10558 10564 10553 10556 10565 10563 10565 10574 10571 10570 10567 10561 10555 10552 10548
10436 10448 10457 10455 10458 10464 10464 10471 10505 10511 10508 10508 10509 10513 10519 10521 10525 10531 10537 10541 10542 10545 10545 10547 10558 10555 10552 10549 10547 10551 10541 10543 10530 10536 10535 10544 10548 10550 10547 10541 10541 10537 10533 10528 10520
10406 10417 10429 10428 10433 10432 10436 10454 10475 10486 10485 10483 10482 10489 10498 10501 10500 10505 10512 10520 10517 10519 10518 10522 10534 10536 10534 10530 10526 10528 10524 10517 10512 10513 10510 10520 10522 10522 10518 10512 10513 10512 10509 10505 10499
10374 10378 10408 10403 10402 10401 10415 10431 10443 10447 10460 10462 10460 10460 10469 10474 10476 10480 10484 10493 10496 10497 10492 10495 10502 10516 10510 10506 10504 10500 10499 10493 10489 10487 10489 10491 10493 10496 10487 10485 10484 10487 10486 10481 10473
10342 10347 10373 10368 10369 10378 10401 10408 10413 10421 10430 10437 10438 10439 10443 10446 10450 10454 10460 10466 10470 10469 10472 10471 10477 10489 10484 10476 10477 10474 10472 10469 10461 10466 10462 10465 10468 10465 10462 10454 10453 10460 10460 10452 10445
10304 10319 10325 10334 10330 10353 10375 10381 10385 10398 10395 10408 10413 10416 10415 10421 10424 10427 10429 10437 10438 10438 10445 10448 10447 10456 10456 10456 10453 10450 10453 10449 10446 10441 10436 10439 10444 10433 10434 10429 10428 10436 10435 10427 10424
10277 10280 10297 10296 10302 10318 10337 10345 10358 10370 10373 10371 10385 10392 10393 10394 10396 10406 10406 10406 10411 10412 10419 10424 10424 10423 10423 10422 10422 10422 10424 10423 10422 10417 10417 10419 10424 10414 10410 10400 10395 10403 10403 10401 10401
10246 10256 10267 10266 10270 10288 10292 10305 10320 10338 10342 10340 10353 10360 10361 10364 10366 10379 10375 10370 10374 10385 10386 10391 10398 10398 10398 10396 10400 10403 10404 10404 10398 10391 10385 10392 10389 10401 10386 10378 10375 10377 10374 10370 10367
10222 10228 10235 10238 10241 10245 10256 10265 10282 10297 10304 10316 10324 10318 10317 10328 10346 10340 10341 10343 10353 10359 10356 10361 10364 10363 10368 10370 10362 10362 10384 10378 10369 10366 10363 10363 10370 10362 10361 10347 10342 10343 10343 10340 10331
10190 10195 10199 10205 10208 10214 10219 10222 10243 10249 10257 10276 10288 10280 10288 10310 10293 10301 10314 10321 10325 10328 10324 10325 10329 10327 10332 10325 10325 10332 10351 10341 10341 10338 10326 10327 10331 10328 10329 10325 10319 10316 10312 10312 10309